Rae Point, Nunavut

7:46 PM MDT on March 25, 2017 (GMT -0600)
Rae Point

Weather History for CZRP - September, 2013

Change the Weather History Date:

Thursday, September 12, 2013

  Actual Average Record
Temperature  
Mean Temperature 18 °F -  
Max Temperature 22 °F - - ()
Min Temperature 14 °F - - ()
Degree Days  
Heating Degree Days 47    
Moisture  
Dew Point 16 °F    
Average Humidity 91    
Maximum Humidity 96    
Minimum Humidity 84    
Precipitation  
Precipitation 0.00 in - - ()
Sea Level Pressure  
Sea Level Pressure 30.08 in    
Wind  
Wind Speed 8 mph ()    
Max Wind Speed 14 mph    
Max Gust Speed -    
T = Trace of Precipitation, MM = Missing Value Source: Averaged Metar Reports

Daily Weather History Graph

Daily Weather History Graph

Search for Another Location

Airport or City:

Trip Planner

Search our weather history database for the weather conditions in past years. The results will help you decide how hot, cold, wet, or windy it might be!

Date:

Astronomy

Sep. 12, 2013 Rise Set
Actual Time 5:42 AM MDT 8:11 PM MDT
Civil Twilight 4:06 AM MDT 9:45 PM MDT
Nautical Twilight 1:31 AM MDT 12:26 AM MDT
Astronomical Twilight Sun does not rise Sun does not rise
Moon No Moon Rise No Moon Set
Length of Visible Light 17h 39m
Length of Day
14h 28m
Waxing Crescent, 51% of the Moon is Illuminated
Sep 12
Waxing Crescent
Sep 19
Full
Sep 26
Last Quarter
Oct 4
New
Oct 11
First Quarter

Hourly Weather History & Observations

Time (MDT) Temp. Windchill Dew Point Humidity Pressure Visibility Wind Dir Wind Speed Gust Speed Precip Events Conditions
12:00 AM 22 °F - 19 °F 84% 30.10 in - NW 12.7 mph - -  
12:00 AM 21.9 °F 9.8 °F 19.2 °F 89% 30.10 in - NW 12.7 mph - N/A   Unknown
1:00 AM 20.7 °F 7.6 °F 18.3 °F 91% 30.10 in - NW 13.8 mph - N/A   Unknown
2:00 AM 19.9 °F 7.9 °F 17.2 °F 89% 30.11 in - NW 11.5 mph - N/A   Unknown
3:00 AM 19.4 °F 7.9 °F 16.5 °F 89% 30.11 in - NW 10.4 mph - N/A   Unknown
4:00 AM 19.0 °F 7.5 °F 16.2 °F 89% 30.10 in - WNW 10.4 mph - N/A   Unknown
5:00 AM 18.7 °F 7.8 °F 16.0 °F 89% 30.10 in - NW 9.2 mph - N/A   Unknown
6:00 AM 18 °F - 15 °F 85% 30.09 in - WNW 9.2 mph - -  
6:00 AM 18.3 °F 7.3 °F 15.4 °F 89% 30.09 in - WNW 9.2 mph - N/A   Unknown
7:00 AM 18.7 °F 8.6 °F 16.0 °F 89% 30.09 in - WNW 8.1 mph - N/A   Unknown
8:00 AM 18.5 °F 9.3 °F 15.8 °F 89% 30.10 in - WNW 6.9 mph - N/A   Unknown
9:00 AM 18.0 °F 8.7 °F 16.0 °F 92% 30.09 in - NW 6.9 mph - N/A   Unknown
11:00 AM 18.0 °F 12.7 °F 16.3 °F 93% 30.08 in - WNW 3.5 mph - N/A   Unknown
1:00 PM 18.5 °F 9.3 °F 17.1 °F 94% 30.07 in - WNW 6.9 mph - N/A   Unknown
2:00 PM 18.5 °F 10.4 °F 17.2 °F 95% 30.06 in - NNW 5.8 mph - N/A   Unknown
3:00 PM 18.7 °F 11.9 °F 16.9 °F 93% 30.06 in - North 4.6 mph - N/A   Unknown
4:00 PM 18.5 °F 10.4 °F 16.9 °F 93% 30.07 in - North 5.8 mph - N/A   Unknown
5:00 PM 18.0 °F 12.7 °F 16.9 °F 96% 30.06 in - North 3.5 mph - N/A   Unknown
6:00 PM 17.6 °F - 16.7 °F 96% 30.06 in - North 2.3 mph - N/A   Unknown
7:00 PM 17.2 °F - 16.3 °F 96% - - NW 2.3 mph - N/A   Unknown
8:00 PM 17.6 °F 10.7 °F 16.5 °F 96% - - West 4.6 mph - N/A   Unknown
9:00 PM 14.9 °F 5.0 °F 13.3 °F 93% 30.05 in - West 6.9 mph - N/A   Unknown
10:00 PM 14.4 °F 6.9 °F 12.6 °F 93% 30.05 in - West 4.6 mph - N/A   Unknown
11:00 PM 14.4 °F 4.3 °F 12.4 °F 92% 30.04 in - West 6.9 mph - N/A   Unknown